User: anonymous   Login
Location: Fort Frances
(48.6170°N, 93.4170°W)
Time: 20:25:14
(UTC-06:00)
Language:

Iridium 53 - Orbit

View from above orbital plane
View from above orbital plane
View from above satellite
View from above satellite

Ground track
Ground track

The orbit data is extracted from the following two-line orbital elements,

1 25173U 98010E   15064.31429300  .00000158  00000-0  49318-4 0  9997
2 25173 086.4008 339.3213 0002214 080.9594 052.2201 14.34216018892106
Epoch (UTC): 05 March 2015 07:32:34
Eccentricity: 0.0002214
inclination: 86.4008°
perigee height: 776 km
apogee height: 779 km
right ascension of ascending node: 339.3213°
argument of perigee: 80.9594°
revolutions per day: 14.34216018
mean anomaly at epoch: 52.2201°
orbit number at epoch: 89210

The dashed part of the orbit path shows where the satellite is in the earth's shadow,  

DLR